Gorch Fock — DRAX — position and weather

sailwx.info

Track history (hours):
 
Tides and Currents Weather Stations Pressure Air Temp Water Temp Dewpoint Dewpoint Depression Visibility Wind Speed Wind Dir Waves Ship Positions

Gorch Fock (Germany)

Ship's website: http://www.marine.de/01DB070000000001/CurrentBaseLink/W2698K4S188INFODE

Last reported at 2015-May-12 21:16 UTC. Time now 2015-May-24 23:28 UTC.
Position N 54°21' E 010°09'.
Warning: this ship's position is 12 days out of date.

Length 89 m; draft 5.4 m.

Type: Sailing vessel. MMSI: 211210280.

Date/timePositionNaut miles runAvg speedWind from/ knotsBaromVisibWave heightAir tempDewpointWater temp
2015-May-12 21:16N 54°21' E 010°09'1 1.0
2015-May-12 20:34N 54°22' E 010°09'2 2.2
2015-May-12 19:33N 54°22' E 010°05'4 7.4
2015-May-12 19:05N 54°21' E 009°59'4 7.1
2015-May-12 18:33N 54°21' E 009°53'5 5.1
2015-May-12 17:33N 54°20' E 009°45'7 6.6
2015-May-12 16:33N 54°15' E 009°37'7 6.9
2015-May-12 15:34N 54°11' E 009°28'6 6.0
2015-May-12 14:33N 54°07' E 009°20'6 5.9
2015-May-12 13:33N 54°02' E 009°18'6 5.9
2015-May-12 12:33N 53°56' E 009°13'4 3.8
2015-May-12 11:32N 53°54' E 009°09'1 1.0
2015-May-12 10:33N 53°53' E 009°08'1010.4
2015-May-12 09:33N 53°48' E 009°23'1110.6
2015-May-12 08:34N 53°38' E 009°32'10 9.8
2015-May-12 07:33N 53°34' E 009°46'7 6.9
2015-May-12 06:34N 53°33' E 009°58'1 0.5
2015-May-12 05:23N 53°33' E 009°59'0 0.0
2015-May-12 04:24N 53°33' E 009°59'0 0.0
2015-May-12 03:24N 53°33' E 009°59'0 0.0
2015-May-12 01:31N 53°33' E 009°59'0 0.0
2015-May-12 00:31N 53°33' E 009°59'0 0.0
2015-May-11 23:31N 53°33' E 009°59'0 0.0
2015-May-11 22:32N 53°33' E 009°59'0 0.0
2015-May-11 21:31N 53°33' E 009°59'0 0.0
2015-May-11 20:31N 53°33' E 009°59'0 0.0
2015-May-11 19:28N 53°33' E 009°59'0 0.0
2015-May-11 18:22N 53°33' E 009°59'0 0.0
2015-May-11 17:28N 53°33' E 009°59'0 0.0
2015-May-11 16:28N 53°33' E 009°59'0 0.0
2015-May-11 15:25N 53°33' E 009°59'0 0.0
2015-May-11 14:31N 53°33' E 009°59'0 0.0
2015-May-11 13:31N 53°33' E 009°59'0 0.0
2015-May-11 12:32N 53°33' E 009°59'0 0.0
2015-May-11 11:32N 53°33' E 009°59'0 0.0
2015-May-11 10:31N 53°33' E 009°59'0 0.0
2015-May-11 09:28N 53°33' E 009°59'0 0.0
2015-May-11 08:32N 53°33' E 009°59'0 0.0
2015-May-11 07:30N 53°33' E 009°59'0 0.0
2015-May-11 06:30N 53°33' E 009°59'0 0.0
2015-May-11 04:09N 53°33' E 009°59'0 0.0
2015-May-11 03:29N 53°33' E 009°59'0 0.0
2015-May-11 02:18N 53°33' E 009°59'0 0.0
2015-May-11 01:32N 53°33' E 009°59'0 0.0
2015-May-11 00:28N 53°33' E 009°59'0 0.0
2015-May-10 23:31N 53°33' E 009°59'0 0.0
2015-May-10 22:32N 53°33' E 009°59'0 0.0
2015-May-10 21:28N 53°33' E 009°59'0 0.0
2015-May-10 20:32N 53°33' E 009°59'0 0.0
2015-May-10 19:32N 53°33' E 009°59'0 0.0
2015-May-10 18:32N 53°33' E 009°59'0 0.0
2015-May-10 17:31N 53°33' E 009°59'0 0.0
2015-May-10 16:32N 53°33' E 009°59'0 0.0
2015-May-10 15:32N 53°33' E 009°59'0 0.0
2015-May-10 14:32N 53°33' E 009°59'0 0.0
2015-May-10 13:32N 53°33' E 009°59'0 0.0
2015-May-10 12:32N 53°33' E 009°59'0 0.0
2015-May-10 11:32N 53°33' E 009°59'0 0.0
2015-May-10 10:32N 53°33' E 009°59'0 0.0
2015-May-10 09:32N 53°33' E 009°59'0 0.0
2015-May-10 08:32N 53°33' E 009°59'0 0.0
2015-May-10 07:26N 53°33' E 009°59'0 0.0
2015-May-10 05:33N 53°33' E 009°59'0 0.0
2015-May-10 04:15N 53°33' E 009°59'0 0.0
2015-May-10 03:06N 53°33' E 009°59'0 0.0
2015-May-10 02:29N 53°33' E 009°59'0 0.0
2015-May-10 01:31N 53°33' E 009°59'0 0.0
2015-May-10 00:31N 53°33' E 009°59'0 0.0
2015-May-09 23:31N 53°33' E 009°59'0 0.0
2015-May-09 22:31N 53°33' E 009°59'0 0.0
2015-May-09 21:28N 53°33' E 009°59'0 0.0
2015-May-09 20:32N 53°33' E 009°59'0 0.0
2015-May-09 19:32N 53°33' E 009°59'0 0.0
2015-May-09 18:32N 53°33' E 009°59'0 0.0
2015-May-09 17:32N 53°33' E 009°59'0 0.0
2015-May-09 16:32N 53°33' E 009°59'0 0.0
2015-May-09 15:28N 53°33' E 009°59'0 0.0
2015-May-09 14:29N 53°33' E 009°59'0 0.0
2015-May-09 13:25N 53°33' E 009°59'0 0.0
2015-May-09 12:32N 53°33' E 009°59'0 0.0
2015-May-09 11:26N 53°33' E 009°59'0 0.0
2015-May-09 10:26N 53°33' E 009°59'0 0.0
2015-May-09 09:32N 53°33' E 009°59'0 0.0
2015-May-09 08:07N 53°33' E 009°59'0 0.0
2015-May-09 07:21N 53°33' E 009°59'0 0.0
2015-May-09 06:23N 53°33' E 009°59'0 0.0
2015-May-09 05:33N 53°33' E 009°59'0 0.0
2015-May-09 04:33N 53°33' E 009°59'0 0.0
2015-May-09 03:20N 53°33' E 009°59'0 0.0
2015-May-09 02:12N 53°33' E 009°59'0 0.0
2015-May-09 01:32N 53°33' E 009°59'0 0.0
2015-May-09 00:31N 53°33' E 009°59'0 0.0
2015-May-08 23:32N 53°33' E 009°59'0 0.0
2015-May-08 22:31N 53°33' E 009°59'0 0.0
2015-May-08 21:29N 53°33' E 009°59'0 0.0
2015-May-08 20:32N 53°33' E 009°59'0 0.0
2015-May-08 19:29N 53°33' E 009°59'0 0.0
2015-May-08 18:22N 53°33' E 009°59'0 0.0
2015-May-08 17:26N 53°33' E 009°59'0 0.0
2015-May-08 16:29N 53°33' E 009°59'0 0.0
2015-May-08 15:17N 53°33' E 009°59'3 3.7
2015-May-08 14:33N 53°32' E 009°54'3 3.2
2015-May-08 13:33N 53°33' E 009°49'2 2.1
2015-May-08 12:33N 53°33' E 009°52'4 3.9
2015-May-08 11:33N 53°32' E 009°59'0 0.3
2015-May-08 10:32N 53°33' E 009°59'0 0.0
2015-May-08 09:23N 53°33' E 009°59'0 0.0
2015-May-08 08:26N 53°33' E 009°59'0 0.0
2015-May-08 07:30N 53°33' E 009°59'0 0.0
2015-May-08 06:30N 53°33' E 009°59'0 0.0
2015-May-08 05:14N 53°33' E 009°59'0 0.0
2015-May-08 04:30N 53°33' E 009°59'0 0.0
2015-May-08 03:30N 53°33' E 009°59'0 0.0
2015-May-08 02:30N 53°33' E 009°59'0 0.0
2015-May-08 01:32N 53°33' E 009°59'0 0.0
2015-May-08 00:32N 53°33' E 009°59'0 0.0
2015-May-07 23:32N 53°33' E 009°59'0 0.0
2015-May-07 22:32N 53°33' E 009°59'0 0.0
2015-May-07 21:29N 53°33' E 009°59'0 0.0
2015-May-07 20:32N 53°33' E 009°59'0 0.0
2015-May-07 19:32N 53°33' E 009°59'0 0.0
2015-May-07 18:32N 53°33' E 009°59'0 0.0
2015-May-07 17:32N 53°33' E 009°59'0 0.0
2015-May-07 16:32N 53°33' E 009°59'0 0.0
2015-May-07 15:32N 53°33' E 009°59'0 0.0
2015-May-07 14:32N 53°33' E 009°59'0 0.0
2015-May-07 13:32N 53°33' E 009°59'0 0.0
2015-May-07 12:32N 53°33' E 009°59'0 0.0
2015-May-07 11:32N 53°33' E 009°59'0 0.0
2015-May-07 10:32N 53°33' E 009°59'0 0.0
2015-May-07 09:32N 53°33' E 009°59'0 0.0
2015-May-07 08:32N 53°33' E 009°59'0 0.0
2015-May-07 07:32N 53°33' E 009°59'3 3.2
2015-May-07 06:33N 53°32' E 009°53'6 5.8
2015-May-07 05:34N 53°34' E 009°44'8 7.9
2015-May-07 04:33N 53°37' E 009°32'9 9.1
2015-May-07 03:33N 53°45' E 009°24'8 8.5
2015-May-07 02:33N 53°52' E 009°16'8 8.2
2015-May-07 01:33N 53°52' E 009°02'9 8.5
2015-May-07 00:33N 53°50' E 008°48'8 8.0
2015-May-06 23:33N 53°56' E 008°39'1010.2
2015-May-06 22:33N 53°59' E 008°22'8 7.6
2015-May-06 21:33N 53°59' E 008°09'5 5.5
2015-May-06 20:33N 54°02' E 008°01'4 4.2
2015-May-06 19:33N 54°06' E 007°58'6 6.3
2015-May-06 18:33N 53°60' E 007°58'4 3.6
2015-May-06 17:33N 53°57' E 007°54'7 7.2
2015-May-06 16:33N 53°55' E 007°42'6 6.5
2015-May-06 15:33N 53°55' E 007°31'4 4.1
2015-May-06 14:33N 53°53' E 007°24'5 5.0
2015-May-06 13:33N 53°52' E 007°16'7 7.1
2015-May-06 12:33N 53°51' E 007°04'21 6.9
2015-May-06 09:31N 53°47' E 006°29'7 5.4
2015-May-06 08:08N 53°51' E 006°19'3 5.3
2015-May-06 07:33N 53°52' E 006°14'6 5.7
2015-May-06 06:33N 53°53' E 006°04'5 4.6
2015-May-06 05:33N 53°54' E 005°57'6 5.6
2015-May-06 04:33N 53°55' E 005°47'5 5.5
2015-May-06 03:33N 53°56' E 005°38'6 5.6
2015-May-06 02:33N 53°57' E 005°29'6 5.9
2015-May-06 01:33N 53°59' E 005°19'6 5.7
2015-May-06 00:33N 54°00' E 005°10'6 6.4
2015-May-05 23:33N 54°02' E 004°59'6 6.1
2015-May-05 22:33N 54°03' E 004°49'6 6.1
2015-May-05 21:33N 54°05' E 004°39'131 5.9
2015-May-04 23:33N 54°10' E 000°56'6 5.5
2015-May-04 22:33N 54°10' E 000°47'5 5.1
2015-May-04 21:33N 54°10' E 000°38'3 3.3
2015-May-04 20:33N 54°12' E 000°35'4 3.9
2015-May-04 19:33N 54°16' E 000°31'4 4.4
2015-May-04 18:33N 54°20' E 000°28'5 4.7
2015-May-04 17:33N 54°24' E 000°24'5 5.0
2015-May-04 16:33N 54°28' E 000°20'5 4.9
2015-May-04 15:33N 54°33' E 000°17'5 5.2
2015-May-04 14:33N 54°37' E 000°12'5 5.4
2015-May-04 13:33N 54°42' E 000°07'5 5.2
2015-May-04 12:33N 54°46' E 000°02'5 4.7
2015-May-04 11:33N 54°51' E 000°01'4 4.4
2015-May-04 10:33N 54°55' W 000°03'7 6.3
2015-May-04 09:27N 55°01' W 000°08'6 6.6
2015-May-04 08:33N 55°06' W 000°13'6 6.3
2015-May-04 07:33N 55°12' W 000°17'7 6.7
2015-May-04 06:30N 55°18' W 000°23'  
Track history (hours):
 
Tides and Currents Weather Stations Pressure Air Temp Water Temp Dewpoint Dewpoint Depression Visibility Wind Speed Wind Dir Waves Ship Positions

Gorch Fock (Germany)

Ship's website: http://www.marine.de/01DB070000000001/CurrentBaseLink/W2698K4S188INFODE

Last reported at 2015-May-12 21:16 UTC. Time now 2015-May-24 23:28 UTC.
Position N 54°21' E 010°09'.
Warning: this ship's position is 12 days out of date.

Length 89 m; draft 5.4 m.

Type: Sailing vessel. MMSI: 211210280.

Date/timePositionNaut miles runAvg speedWind from/ knotsBaromVisibWave heightAir tempDewpointWater temp
2015-May-12 21:16N 54°21' E 010°09'1 1.0
2015-May-12 20:34N 54°22' E 010°09'2 2.2
2015-May-12 19:33N 54°22' E 010°05'4 7.4
2015-May-12 19:05N 54°21' E 009°59'4 7.1
2015-May-12 18:33N 54°21' E 009°53'5 5.1
2015-May-12 17:33N 54°20' E 009°45'7 6.6
2015-May-12 16:33N 54°15' E 009°37'7 6.9
2015-May-12 15:34N 54°11' E 009°28'6 6.0
2015-May-12 14:33N 54°07' E 009°20'6 5.9
2015-May-12 13:33N 54°02' E 009°18'6 5.9
2015-May-12 12:33N 53°56' E 009°13'4 3.8
2015-May-12 11:32N 53°54' E 009°09'1 1.0
2015-May-12 10:33N 53°53' E 009°08'1010.4
2015-May-12 09:33N 53°48' E 009°23'1110.6
2015-May-12 08:34N 53°38' E 009°32'10 9.8
2015-May-12 07:33N 53°34' E 009°46'7 6.9
2015-May-12 06:34N 53°33' E 009°58'1 0.5
2015-May-12 05:23N 53°33' E 009°59'0 0.0
2015-May-12 04:24N 53°33' E 009°59'0 0.0
2015-May-12 03:24N 53°33' E 009°59'0 0.0
2015-May-12 01:31N 53°33' E 009°59'0 0.0
2015-May-12 00:31N 53°33' E 009°59'0 0.0
2015-May-11 23:31N 53°33' E 009°59'0 0.0
2015-May-11 22:32N 53°33' E 009°59'0 0.0
2015-May-11 21:31N 53°33' E 009°59'0 0.0
2015-May-11 20:31N 53°33' E 009°59'0 0.0
2015-May-11 19:28N 53°33' E 009°59'0 0.0
2015-May-11 18:22N 53°33' E 009°59'0 0.0
2015-May-11 17:28N 53°33' E 009°59'0 0.0
2015-May-11 16:28N 53°33' E 009°59'0 0.0
2015-May-11 15:25N 53°33' E 009°59'0 0.0
2015-May-11 14:31N 53°33' E 009°59'0 0.0
2015-May-11 13:31N 53°33' E 009°59'0 0.0
2015-May-11 12:32N 53°33' E 009°59'0 0.0
2015-May-11 11:32N 53°33' E 009°59'0 0.0
2015-May-11 10:31N 53°33' E 009°59'0 0.0
2015-May-11 09:28N 53°33' E 009°59'0 0.0
2015-May-11 08:32N 53°33' E 009°59'0 0.0
2015-May-11 07:30N 53°33' E 009°59'0 0.0
2015-May-11 06:30N 53°33' E 009°59'0 0.0
2015-May-11 04:09N 53°33' E 009°59'0 0.0
2015-May-11 03:29N 53°33' E 009°59'0 0.0
2015-May-11 02:18N 53°33' E 009°59'0 0.0
2015-May-11 01:32N 53°33' E 009°59'0 0.0
2015-May-11 00:28N 53°33' E 009°59'0 0.0
2015-May-10 23:31N 53°33' E 009°59'0 0.0
2015-May-10 22:32N 53°33' E 009°59'0 0.0
2015-May-10 21:28N 53°33' E 009°59'0 0.0
2015-May-10 20:32N 53°33' E 009°59'0 0.0
2015-May-10 19:32N 53°33' E 009°59'0 0.0
2015-May-10 18:32N 53°33' E 009°59'0 0.0
2015-May-10 17:31N 53°33' E 009°59'0 0.0
2015-May-10 16:32N 53°33' E 009°59'0 0.0
2015-May-10 15:32N 53°33' E 009°59'0 0.0
2015-May-10 14:32N 53°33' E 009°59'0 0.0
2015-May-10 13:32N 53°33' E 009°59'0 0.0
2015-May-10 12:32N 53°33' E 009°59'0 0.0
2015-May-10 11:32N 53°33' E 009°59'0 0.0
2015-May-10 10:32N 53°33' E 009°59'0 0.0
2015-May-10 09:32N 53°33' E 009°59'0 0.0
2015-May-10 08:32N 53°33' E 009°59'0 0.0
2015-May-10 07:26N 53°33' E 009°59'0 0.0
2015-May-10 05:33N 53°33' E 009°59'0 0.0
2015-May-10 04:15N 53°33' E 009°59'0 0.0
2015-May-10 03:06N 53°33' E 009°59'0 0.0
2015-May-10 02:29N 53°33' E 009°59'0 0.0
2015-May-10 01:31N 53°33' E 009°59'0 0.0
2015-May-10 00:31N 53°33' E 009°59'0 0.0
2015-May-09 23:31N 53°33' E 009°59'0 0.0
2015-May-09 22:31N 53°33' E 009°59'0 0.0
2015-May-09 21:28N 53°33' E 009°59'0 0.0
2015-May-09 20:32N 53°33' E 009°59'0 0.0
2015-May-09 19:32N 53°33' E 009°59'0 0.0
2015-May-09 18:32N 53°33' E 009°59'0 0.0
2015-May-09 17:32N 53°33' E 009°59'0 0.0
2015-May-09 16:32N 53°33' E 009°59'0 0.0
2015-May-09 15:28N 53°33' E 009°59'0 0.0
2015-May-09 14:29N 53°33' E 009°59'0 0.0
2015-May-09 13:25N 53°33' E 009°59'0 0.0
2015-May-09 12:32N 53°33' E 009°59'0 0.0
2015-May-09 11:26N 53°33' E 009°59'0 0.0
2015-May-09 10:26N 53°33' E 009°59'0 0.0
2015-May-09 09:32N 53°33' E 009°59'0 0.0
2015-May-09 08:07N 53°33' E 009°59'0 0.0
2015-May-09 07:21N 53°33' E 009°59'0 0.0
2015-May-09 06:23N 53°33' E 009°59'0 0.0
2015-May-09 05:33N 53°33' E 009°59'0 0.0
2015-May-09 04:33N 53°33' E 009°59'0 0.0
2015-May-09 03:20N 53°33' E 009°59'0 0.0
2015-May-09 02:12N 53°33' E 009°59'0 0.0
2015-May-09 01:32N 53°33' E 009°59'0 0.0
2015-May-09 00:31N 53°33' E 009°59'0 0.0
2015-May-08 23:32N 53°33' E 009°59'0 0.0
2015-May-08 22:31N 53°33' E 009°59'0 0.0
2015-May-08 21:29N 53°33' E 009°59'0 0.0
2015-May-08 20:32N 53°33' E 009°59'0 0.0
2015-May-08 19:29N 53°33' E 009°59'0 0.0
2015-May-08 18:22N 53°33' E 009°59'0 0.0
2015-May-08 17:26N 53°33' E 009°59'0 0.0
2015-May-08 16:29N 53°33' E 009°59'0 0.0
2015-May-08 15:17N 53°33' E 009°59'3 3.7
2015-May-08 14:33N 53°32' E 009°54'3 3.2
2015-May-08 13:33N 53°33' E 009°49'2 2.1
2015-May-08 12:33N 53°33' E 009°52'4 3.9
2015-May-08 11:33N 53°32' E 009°59'0 0.3
2015-May-08 10:32N 53°33' E 009°59'0 0.0
2015-May-08 09:23N 53°33' E 009°59'0 0.0
2015-May-08 08:26N 53°33' E 009°59'0 0.0
2015-May-08 07:30N 53°33' E 009°59'0 0.0
2015-May-08 06:30N 53°33' E 009°59'0 0.0
2015-May-08 05:14N 53°33' E 009°59'0 0.0
2015-May-08 04:30N 53°33' E 009°59'0 0.0
2015-May-08 03:30N 53°33' E 009°59'0 0.0
2015-May-08 02:30N 53°33' E 009°59'0 0.0
2015-May-08 01:32N 53°33' E 009°59'0 0.0
2015-May-08 00:32N 53°33' E 009°59'0 0.0
2015-May-07 23:32N 53°33' E 009°59'0 0.0
2015-May-07 22:32N 53°33' E 009°59'0 0.0
2015-May-07 21:29N 53°33' E 009°59'0 0.0
2015-May-07 20:32N 53°33' E 009°59'0 0.0
2015-May-07 19:32N 53°33' E 009°59'0 0.0
2015-May-07 18:32N 53°33' E 009°59'0 0.0
2015-May-07 17:32N 53°33' E 009°59'0 0.0
2015-May-07 16:32N 53°33' E 009°59'0 0.0
2015-May-07 15:32N 53°33' E 009°59'0 0.0
2015-May-07 14:32N 53°33' E 009°59'0 0.0
2015-May-07 13:32N 53°33' E 009°59'0 0.0
2015-May-07 12:32N 53°33' E 009°59'0 0.0
2015-May-07 11:32N 53°33' E 009°59'0 0.0
2015-May-07 10:32N 53°33' E 009°59'0 0.0
2015-May-07 09:32N 53°33' E 009°59'0 0.0
2015-May-07 08:32N 53°33' E 009°59'0 0.0
2015-May-07 07:32N 53°33' E 009°59'3 3.2
2015-May-07 06:33N 53°32' E 009°53'6 5.8
2015-May-07 05:34N 53°34' E 009°44'8 7.9
2015-May-07 04:33N 53°37' E 009°32'9 9.1
2015-May-07 03:33N 53°45' E 009°24'8 8.5
2015-May-07 02:33N 53°52' E 009°16'8 8.2
2015-May-07 01:33N 53°52' E 009°02'9 8.5
2015-May-07 00:33N 53°50' E 008°48'8 8.0
2015-May-06 23:33N 53°56' E 008°39'1010.2
2015-May-06 22:33N 53°59' E 008°22'8 7.6
2015-May-06 21:33N 53°59' E 008°09'5 5.5
2015-May-06 20:33N 54°02' E 008°01'4 4.2
2015-May-06 19:33N 54°06' E 007°58'6 6.3
2015-May-06 18:33N 53°60' E 007°58'4 3.6
2015-May-06 17:33N 53°57' E 007°54'7 7.2
2015-May-06 16:33N 53°55' E 007°42'6 6.5
2015-May-06 15:33N 53°55' E 007°31'4 4.1
2015-May-06 14:33N 53°53' E 007°24'5 5.0
2015-May-06 13:33N 53°52' E 007°16'7 7.1
2015-May-06 12:33N 53°51' E 007°04'21 6.9
2015-May-06 09:31N 53°47' E 006°29'7 5.4
2015-May-06 08:08N 53°51' E 006°19'3 5.3
2015-May-06 07:33N 53°52' E 006°14'6 5.7
2015-May-06 06:33N 53°53' E 006°04'5 4.6
2015-May-06 05:33N 53°54' E 005°57'6 5.6
2015-May-06 04:33N 53°55' E 005°47'5 5.5
2015-May-06 03:33N 53°56' E 005°38'6 5.6
2015-May-06 02:33N 53°57' E 005°29'6 5.9
2015-May-06 01:33N 53°59' E 005°19'6 5.7
2015-May-06 00:33N 54°00' E 005°10'6 6.4
2015-May-05 23:33N 54°02' E 004°59'6 6.1
2015-May-05 22:33N 54°03' E 004°49'6 6.1
2015-May-05 21:33N 54°05' E 004°39'131 5.9
2015-May-04 23:33N 54°10' E 000°56'6 5.5
2015-May-04 22:33N 54°10' E 000°47'5 5.1
2015-May-04 21:33N 54°10' E 000°38'3 3.3
2015-May-04 20:33N 54°12' E 000°35'4 3.9
2015-May-04 19:33N 54°16' E 000°31'4 4.4
2015-May-04 18:33N 54°20' E 000°28'5 4.7
2015-May-04 17:33N 54°24' E 000°24'5 5.0
2015-May-04 16:33N 54°28' E 000°20'5 4.9
2015-May-04 15:33N 54°33' E 000°17'5 5.2
2015-May-04 14:33N 54°37' E 000°12'5 5.4
2015-May-04 13:33N 54°42' E 000°07'5 5.2
2015-May-04 12:33N 54°46' E 000°02'5 4.7
2015-May-04 11:33N 54°51' E 000°01'4 4.4
2015-May-04 10:33N 54°55' W 000°03'7 6.3
2015-May-04 09:27N 55°01' W 000°08'6 6.6
2015-May-04 08:33N 55°06' W 000°13'6 6.3
2015-May-04 07:33N 55°12' W 000°17'7 6.7
2015-May-04 06:30N 55°18' W 000°23'  

Dump ship's entire track history